Regional Weather Roundup
Issued by NWS

Home | Current Version | Previous Version | Text Only | Print | Product List | Glossary On
Versions: 1 2 3 4 5 6 7 8 9 10 11 12 13 14 15 16 17 18 19 20 21 22 23 24 25 26 27 28 29 30 31 32 33 34 35 36 37 38 39 40 41 42 43 44 45 46 47 48 49 50
000
ASUS45 KREV 011010
RWRNV
NEVADA REGIONAL WEATHER ROUNDUP
NATIONAL WEATHER SERVICE RENO NV
300 AM PDT SUN MAY 01 2016

NOTE: "FAIR" INDICATES FEW OR NO CLOUDS BELOW 12,000 FEET WITH NO
SIGNIFICANT WEATHER AND/OR OBSTRUCTIONS TO VISIBILITY.

NVZ001-003-004-011100-
WESTERN NEVADA

CITY           SKY/WX    TMP DP  RH WIND       PRES   REMARKS
RENO           PTCLDY    42  32  67 CALM      30.04F
CARSON CITY    FAIR      37  32  81 SW6       30.04F
MINDEN         FAIR      32  32 100 CALM      30.05S
SLIDE MTN        N/A     30  25  80 E41         N/A
PYRAMID LAKE     N/A     50 N/A N/A SW6         N/A
FALLON         CLEAR     40  28  62 NW5       30.02S
LOVELOCK       CLEAR     45  31  58 NE14      30.03F
HAWTHORNE      PTCLDY    46  36  66 N6        30.02
$$

NVZ002-CAZ072-073-011100-
NORTHERN AND CENTRAL SIERRA

CITY           SKY/WX    TMP DP  RH WIND       PRES   REMARKS
S. LAKE TAHOE  PTCLDY    34  29  82 VRB3      30.03F
TRUCKEE        PTCLDY    30  27  86 CALM      30.04F
SQUAW VLY 8000   N/A     34  27  75 NE8         N/A
SUSANVILLE     CLOUDY    48  34  57 CALM      30.05F
BLUE CANYON    CLEAR     49  26  41 NE10G28   29.97F
MAMMOTH LAKES  FAIR      33  28  83 NW3       30.05F
BRIDGEPORT     FAIR      32  27  81 CALM      30.03F
$$

NVZ030-031-036-011100-
NORTHERN NEVADA

CITY           SKY/WX    TMP DP  RH WIND       PRES   REMARKS
ELKO           PTCLDY    44  35  70 NE13      30.05S
WINNEMUCCA     CLEAR     42  34  73 N6        30.07F
WENDOVER       MOCLDY    46  36  66 N21G26    30.04S
$$

NVZ035-037-011100-
CENTRAL NEVADA

CITY           SKY/WX    TMP DP  RH WIND       PRES   REMARKS
ELY            PTCLDY    37  34  89 N21       30.00F
EUREKA           N/A     37  33  85 S6        30.03S
$$

NVZ013-014-011100-
SOUTH CENTRAL NEVADA

CITY           SKY/WX    TMP DP  RH WIND       PRES   REMARKS
TONOPAH        PTCLDY    44  33  65 N15       29.99F
$$

NVZ017-020-022-011100-
SOUTHERN NEVADA

CITY           SKY/WX    TMP DP  RH WIND       PRES   REMARKS
LAS VEGAS      MOCLDY    56  49  77 CALM      29.80S
N. LAS VEGAS   MOCLDY    59  45  59 N9        29.82S
NELLIS AFB     MOCLDY    56  49  75 SW2       29.82S
HENDERSON      MOCLDY    52  48  86 S5        29.86R
MERCURY        CLEAR     51  40  65 E7        29.87F
$$



USA.gov is the U.S. government's official web portal to all federal, state and local government web resources and services.